Location: Champs
(48.8539°N, 2.6040°E)
Time: 13:28:03
(UTC+00:00)

Cosmos 2360 Rocket - Pass Details

Date: 26 October 2021
Orbit: 832 x 846 km, 71.0° (Epoch: 07 December)

Event Time Altitude Azimuth Distance (km) Brightness Sun altitude
Exits shadow 04:38:19 32° 277° (W) 1,421 2.8 -18.5°
Maximum altitude 04:39:26 35° 254° (WSW) 1,346 2.7 -18.3°
Drops below altitude 10° 04:44:29 10° 190° (S) 2,461 4.5 -17.4°
Sets 04:47:06 0° 182° (S) 3,391 5.3 -17.0°
